Tillbaka till svenska Fidonet
English   Information   Debug  
FILM   0/18
FNEWS_PUBLISH   4926
FN_SYSOP   42201
FN_SYSOP_OLD1   71952
FTP_FIDO   0/2
FTSC_PUBLIC   0/13972
FUNNY   0/4886
GENEALOGY.EUR   0/71
GET_INFO   105
GOLDED   269/408
HAM   3318/16660
HOLYSMOKE   0/6791
HOT_SITES   0/1
HTMLEDIT   0/71
HUB203   466
HUB_100   264
HUB_400   39
HUMOR   0/29
IC   0/2851
INTERNET   0/424
INTERUSER   0/3
IP_CONNECT   719
JAMNNTPD   0/233
JAMTLAND   0/47
KATTY_KORNER   0/41
LAN   0/16
LINUX-USER   0/19
LINUXHELP   0/1155
LINUX   0/22300
LINUX_BBS   0/957
mail   18.68
mail_fore_ok   249
MENSA   0/341
MODERATOR   0/102
MONTE   0/992
MOSCOW_OKLAHOMA   0/1245
MUFFIN   0/783
MUSIC   0/321
N203_STAT   938
N203_SYSCHAT   313
NET203   321
NET204   69
NET_DEV   0/10
NORD.ADMIN   0/101
NORD.CHAT   0/2572
NORD.FIDONET   189
NORD.HARDWARE   0/28
NORD.KULTUR   0/114
NORD.PROG   0/32
NORD.SOFTWARE   0/88
NORD.TEKNIK   0/58
NORD   0/453
OCCULT_CHAT   0/93
OS2BBS   0/787
OS2DOSBBS   0/580
OS2HW   0/42
OS2INET   0/37
OS2LAN   0/134
OS2PROG   0/36
OS2REXX   0/113
OS2USER-L   207
OS2   0/4830
OSDEBATE   0/18996
PASCAL   0/490
PERL   0/457
PHP   0/45
POINTS   0/405
POLITICS   0/29554
POL_INC   0/14731
PSION   103
R20_ADMIN   1133
R20_AMATORRADIO   0/2
R20_BEST_OF_FIDONET   16
R20_CHAT   0/896
R20_DEPP   0/3
R20_DEV   400
R20_ECHO2   1831
R20_ECHOPRES   0/35
R20_ESTAT   0/719
R20_FIDONETPROG...
...RAM.MYPOINT
  0/2
R20_FIDONETPROGRAM   0/22
R20_FIDONET   0/248
R20_FILEFIND   0/24
R20_FILEFOUND   0/22
R20_HIFI   0/3
R20_INFO2   3723
R20_INTERNET   0/12940
R20_INTRESSE   0/60
R20_INTR_KOM   0/99
R20_KANDIDAT.CHAT   42
R20_KANDIDAT   28
R20_KOM_DEV   112
R20_KONTROLL   0/13360
R20_KORSET   0/18
R20_LOKALTRAFIK   0/24
R20_MODERATOR   0/1852
R20_NC   76
R20_NET200   245
R20_NETWORK.OTH...
...ERNETS
  0/13
R20_OPERATIVSYS...
...TEM.LINUX
  0/44
R20_PROGRAMVAROR   0/1
R20_REC2NEC   534
R20_SFOSM   0/341
R20_SF   0/108
R20_SPRAK.ENGLISH   0/1
R20_SQUISH   107
R20_TEST   2
R20_WORST_OF_FIDONET   20
RAR   0/9
RA_MULTI   106
RA_UTIL   0/162
REGCON.EUR   0/2068
REGCON   0/13
SCIENCE   0/1206
SF   0/239
SHAREWARE_SUPPORT   0/5146
SHAREWRE   0/14
SIMPSONS   0/169
STATS_OLD1   0/2539.065
STATS_OLD2   0/2530
STATS_OLD3   0/2395.095
STATS_OLD4   0/1692.25
SURVIVOR   0/495
SYSOPS_CORNER   0/3
SYSOP   0/84
TAGLINES   0/112
TEAMOS2   0/4530
TECH   0/2617
TEST.444   0/105
TRAPDOOR   0/19
TREK   0/755
TUB   0/290
UFO   0/40
UNIX   0/1316
USA_EURLINK   0/102
USR_MODEMS   0/1
VATICAN   0/2740
VIETNAM_VETS   0/14
VIRUS   0/378
VIRUS_INFO   0/201
VISUAL_BASIC   0/473
WHITEHOUSE   0/5187
WIN2000   0/101
WIN32   0/30
WIN95   0/4291
WIN95_OLD1   0/70272
WINDOWS   0/1517
WWB_SYSOP   0/419
WWB_TECH   0/810
ZCC-PUBLIC   0/1
ZEC   4

 
4DOS   0/134
ABORTION   0/7
ALASKA_CHAT   0/506
ALLFIX_FILE   0/1313
ALLFIX_FILE_OLD1   0/7997
ALT_DOS   0/152
AMATEUR_RADIO   0/1039
AMIGASALE   0/14
AMIGA   0/331
AMIGA_INT   0/1
AMIGA_PROG   0/20
AMIGA_SYSOP   0/26
ANIME   0/15
ARGUS   0/924
ASCII_ART   0/340
ASIAN_LINK   0/651
ASTRONOMY   0/417
AUDIO   0/92
AUTOMOBILE_RACING   0/105
BABYLON5   0/17862
BAG   135
BATPOWER   0/361
BBBS.ENGLISH   0/382
BBSLAW   0/109
BBS_ADS   0/5290
BBS_INTERNET   0/507
BIBLE   0/3563
BINKD   0/1119
BINKLEY   0/215
BLUEWAVE   0/2173
CABLE_MODEMS   0/25
CBM   0/46
CDRECORD   0/66
CDROM   0/20
CLASSIC_COMPUTER   0/378
COMICS   0/15
CONSPRCY   0/899
COOKING   41444
COOKING_OLD1   0/24719
COOKING_OLD2   0/40862
COOKING_OLD3   0/37489
COOKING_OLD4   0/35496
COOKING_OLD5   9370
C_ECHO   0/189
C_PLUSPLUS   0/31
DIRTY_DOZEN   0/201
DOORGAMES   0/2285
DOS_INTERNET   0/196
duplikat   6102
ECHOLIST   0/18295
EC_SUPPORT   0/318
ELECTRONICS   0/359
ELEKTRONIK.GER   1534
ENET.LINGUISTIC   0/13
ENET.POLITICS   0/4
ENET.SOFT   0/11701
ENET.SYSOP   34296
ENET.TALKS   0/32
ENGLISH_TUTOR   0/2000
EVOLUTION   0/1335
FDECHO   0/217
FDN_ANNOUNCE   0/7068
FIDONEWS   25062
FIDONEWS_OLD1   0/49742
FIDONEWS_OLD2   0/35949
FIDONEWS_OLD3   0/30874
FIDONEWS_OLD4   0/37224
FIDO_SYSOP   12922
FIDO_UTIL   0/180
FILEFIND   0/209
FILEGATE   0/212
Möte HAM, 16660 texter
 lista första sista föregående nästa
Text 5448, 979 rader
Skriven 2012-08-02 23:30:42 av Amsat List (1:323/120.0)
Ärende: [keps] orb12215.amsa
============================
[keps] orb12215.amsa

Sender: keps-bounces@amsat.org
Return-Path: <keps-bounces@amsat.org>
X-Rcpt: craig.healy@chowda.com
X-UIDL: 1343963366.1585

SB KEPS @ AMSAT  $ORB12215.O
Orbital Elements  12215.OSCAR

HR AMSAT ORBITAL ELEMENTS FOR OSCAR SATELLITES
FROM WA5QGD FORT WORTH,TX August 2, 2012
Send SUBSCRIBE KEPS/UNSUBSCRIBE KEPS to majordomo@amsat.org only
BID: ORB12215.O
TO ALL RADIO AMATEURS BT

Satellite: AO-07
Catalog number: 07530
Epoch time:      12214.55466960
Element set:     445
Inclination:      101.4051 deg
RA of node:       210.0181 deg
Eccentricity:    0.0011592
Arg of perigee:   192.7824 deg
Mean anomaly:     167.2954 deg
Mean motion:   12.53590410 rev/day
Decay rate:       -2.7e-07 rev/day^2
Epoch rev:           72573
Checksum:              271

Satellite: FO-29
Catalog number: 24278
Epoch time:      12214.88552316
Element set:     902
Inclination:      098.5856 deg
RA of node:       309.5651 deg
Eccentricity:    0.0349698
Arg of perigee:   271.0879 deg
Mean anomaly:     085.0222 deg
Mean motion:   13.52985611 rev/day
Decay rate:       -2.5e-07 rev/day^2
Epoch rev:           78813
Checksum:              342

Satellite: SO-33
Catalog number: 25509
Epoch time:      12214.68447970
Element set:    0290
Inclination:      031.4359 deg
RA of node:       076.2093 deg
Eccentricity:    0.0353174
Arg of perigee:   241.4381 deg
Mean anomaly:     115.0294 deg
Mean motion:   14.28797956 rev/day
Decay rate:      +3.29e-06 rev/day^2
Epoch rev:           71916
Checksum:              321

Satellite: RS-22
Catalog number: 27939
Epoch time:      12215.53970040
Element set:     594
Inclination:      097.8091 deg
RA of node:       053.9723 deg
Eccentricity:    0.0014346
Arg of perigee:   115.4870 deg
Mean anomaly:     244.7816 deg
Mean motion:   14.64081402 rev/day
Decay rate:       4.69e-06 rev/day^2
Epoch rev:           47266
Checksum:              314

Satellite: VO-52
Catalog number: 28650
Epoch time:      12214.86768926
Element set:    0171
Inclination:      097.5953 deg
RA of node:       243.5856 deg
Eccentricity:    0.0025170
Arg of perigee:   250.4001 deg
Mean anomaly:     109.4488 deg
Mean motion:   14.83074342 rev/day
Decay rate:     +1.407e-05 rev/day^2
Epoch rev:           39174
Checksum:              314

Satellite: HO-68
Catalog number: 36122
Epoch time:      12215.80797145
Element set:     702
Inclination:      100.3580 deg
RA of node:       274.2073 deg
Eccentricity:    0.0007601
Arg of perigee:   005.2091 deg
Mean anomaly:     354.9103 deg
Mean motion:   13.16297122 rev/day
Decay rate:       -4.4e-07 rev/day^2
Epoch rev:           12652
Checksum:              257

/EX
SB KEPS @ AMSAT  $ORB12215.D
Orbital Elements  12215.MICROS

HR AMSAT ORBITAL ELEMENTS FOR THE MICROSATS
FROM WA5QGD FORT WORTH,TX August 2, 2012
Send SUBSCRIBE KEPS/UNSUBSCRIBE KEPS to majordomo@amsat.org only
BID: ORB12215.D
TO ALL RADIO AMATEURS BT

Satellite: UO-11
Catalog number: 14781
Epoch time:      12214.94445695
Element set:    0949
Inclination:      097.9499 deg
RA of node:       274.0569 deg
Eccentricity:    0.0007770
Arg of perigee:   242.3580 deg
Mean anomaly:     117.6842 deg
Mean motion:   14.80506995 rev/day
Decay rate:      +6.70e-06 rev/day^2
Epoch rev:           52670
Checksum:              347

Satellite: AO-16
Catalog number: 20439
Epoch time:      12215.89992929
Element set:     525
Inclination:      098.4333 deg
RA of node:       157.9722 deg
Eccentricity:    0.0011626
Arg of perigee:   024.5801 deg
Mean anomaly:     335.5932 deg
Mean motion:   14.32069861 rev/day
Decay rate:        7.7e-07 rev/day^2
Epoch rev:           17668
Checksum:              327

Satellite: LO-19
Catalog number: 20442
Epoch time:      12214.93783163
Element set:    0470
Inclination:      098.3980 deg
RA of node:       159.8822 deg
Eccentricity:    0.0012305
Arg of perigee:   019.6265 deg
Mean anomaly:     340.5385 deg
Mean motion:   14.32287521 rev/day
Decay rate:      +1.45e-06 rev/day^2
Epoch rev:           17673
Checksum:              304

Satellite: AO-27
Catalog number: 22825
Epoch time:      12214.88328874
Element set:     163
Inclination:      098.5765 deg
RA of node:       156.9915 deg
Eccentricity:    0.0008788
Arg of perigee:   140.0634 deg
Mean anomaly:     220.1188 deg
Mean motion:   14.29474073 rev/day
Decay rate:        5.0e-07 rev/day^2
Epoch rev:           98300
Checksum:              320

Satellite: IO-26
Catalog number: 22826
Epoch time:      12214.87540138
Element set:    0926
Inclination:      098.5708 deg
RA of node:       157.3432 deg
Eccentricity:    0.0009195
Arg of perigee:   134.1829 deg
Mean anomaly:     226.0106 deg
Mean motion:   14.29748977 rev/day
Decay rate:       +5.6e-07 rev/day^2
Epoch rev:           98313
Checksum:              328

Satellite: GO-32
Catalog number: 25397
Epoch time:      12214.81156659
Element set:     838
Inclination:      098.3644 deg
RA of node:       191.2843 deg
Eccentricity:    0.0001990
Arg of perigee:   124.7544 deg
Mean anomaly:     235.3809 deg
Mean motion:   14.23285185 rev/day
Decay rate:        6.3e-07 rev/day^2
Epoch rev:           73051
Checksum:              314

Satellite: NO-44
Catalog number: 26931
Epoch time:      12214.71853430
Element set:     102
Inclination:      067.0521 deg
RA of node:       002.9893 deg
Eccentricity:    0.0007225
Arg of perigee:   256.2402 deg
Mean anomaly:     103.7898 deg
Mean motion:   14.29816269 rev/day
Decay rate:       1.85e-06 rev/day^2
Epoch rev:           56575
Checksum:              298

